Regional Weather Roundup
Issued by NWS Little Rock, AR

Home | Current Version | Previous Version | Graphics & Text | Print | Product List | Glossary Off
Versions: 1 2 3 4 5 6 7 8 9 10 11 12 13 14 15 16 17 18 19 20 21 22 23 24 25 26 27 28 29 30 31 32

000
ASUS44 KLZK 230705
RWRLZK

WEATHER ROUNDUP FOR ARKANSAS
NATIONAL WEATHER SERVICE LITTLE ROCK AR
200 AM CDT SUN JUL 23 2017

NOTE: "FAIR" INDICATES FEW OR NO CLOUDS BELOW 12,000 FEET WITH NO
SIGNIFICANT WEATHER AND/OR OBSTRUCTIONS TO VISIBILITY.

ARZ001-003-010-029-230800-
NORTHWEST ARKANSAS

CITY           SKY/WX    TMP DP  RH WIND       PRES   REMARKS
FAYETTEVILLE   CLEAR     75  73  93 SW6       29.92F
FORT SMITH     CLEAR     81  74  79 E3        29.87F HX  86
HARRISON       CLEAR     79  71  76 S6        29.91F
BENTONVILLE    CLEAR     77  70  78 CALM      29.93S
ROGERS         CLEAR     79  71  76 SW7       29.93S
SILOAM SPGS    CLEAR     75  68  78 SW6       29.91F
HIGHFILL       CLEAR     76  71  85 CALM      29.92S
$$

ARZ004-005-016-230800-
NORTH CENTRAL ARKANSAS

CITY           SKY/WX    TMP DP  RH WIND       PRES   REMARKS
BATESVILLE     CLEAR     81  73  78 NW5       29.88S HX  85
FLIPPIN        CLEAR     81  68  65 SW5       29.85F
MTN HOME       CLEAR     77  72  84 SW3       29.88F
$$

ARZ040-041-230800-
WEST CENTRAL ARKANSAS

CITY           SKY/WX    TMP DP  RH WIND       PRES   REMARKS
MENA           CLEAR     75  73  94 CALM      29.93S
MOUNT IDA      CLEAR     75  72  90 CALM      29.89F
$$

ARZ009-017-025-026-028-230800-
NORTHEAST ARKANSAS

CITY           SKY/WX    TMP DP  RH WIND       PRES   REMARKS
CORNING        FAIR      81  79  94 SW6       29.86F HX  89
JONESBORO      CLEAR     82  78  88 SW6       29.86F HX  91
WALNUT RIDGE   CLEAR     81  73  78 S7        29.86F HX  85
BLYTHEVILLE    CLEAR     80  77  90 SW7       29.87F HX  87
$$

ARZ022-023-033-042-044-230800-
CENTRAL ARKANSAS

CITY           SKY/WX    TMP DP  RH WIND       PRES   REMARKS
LITTLE ROCK    CLEAR     79  77  94 S7        29.89S
N LITTLE ROCK    N/A     81  76  84 SW5       29.87S HX  87
JACKSONVILLE   CLEAR     81  77  86 CALM      29.88R HX  88
CONWAY           N/A     82  75  78 CALM      29.86F HX  89
SEARCY         CLEAR     79  78  97 CALM      29.89F
HOT SPRINGS    CLEAR     81  76  84 CALM      29.90F HX  87
RUSSELLVILLE   CLEAR     77  74  90 CALM      29.87F
CLINTON        FAIR      75  75 100 CALM      29.88F FOG
$$

ARZ036-230800-
EAST ARKANSAS

CITY           SKY/WX    TMP DP  RH WIND       PRES   REMARKS
WEST MEMPHIS   CLEAR     77  77 100 S6        29.88S
$$

ARZ050-053-066-070-073-230800-
SOUTHWEST ARKANSAS

CITY           SKY/WX    TMP DP  RH WIND       PRES   REMARKS
ARKADELPHIA    FAIR      77  74  90 S3        29.90F
CAMDEN         PTCLDY    75  72  88 S3        29.90F
TEXARKANA      PTCLDY    79  75  87 S9        29.91S
EL DORADO      PTCLDY    75  73  93 S5        29.93F
DE QUEEN       CLOUDY    76  76 100 CALM      29.88S FOG
$$

ARZ056-057-069-230800-
SOUTHEAST ARKANSAS

CITY           SKY/WX    TMP DP  RH WIND       PRES   REMARKS
PINE BLUFF     CLEAR     76  73  91 SW7       29.90F
STUTTGART      CLEAR     79  63  57 S9        29.90S
MONTICELLO     CLEAR     76  73  91 S3        29.92F

$$






USA.gov is the U.S. government's official web portal to all federal, state and local government web resources and services.